This is the latest recevied weather packets stored in our database for station/object WA1OUI. If no packets are shown the sender has not sent any weather packets the latest 1 day(s).
| Time | Temp. | Humidity | Pressure | Rain* | Wind** | Luminosity | Snow |
|---|---|---|---|---|---|---|---|
| 1778008504 | 26.67° C | 41% | 1005.1 hPa | 0 mm | 0.89 m/s, 17° | 544 W/m² | - |
| 1778008202 | 27.22° C | 41% | 1005.2 hPa | 0 mm | 0.89 m/s, 42° | 532 W/m² | - |
| 1778007896 | 27.22° C | 42% | 1005.5 hPa | 0 mm | 0.45 m/s, 159° | 545 W/m² | - |
| 1778007592 | 26.67° C | 41% | 1005.4 hPa | 0 mm | 1.79 m/s, 124° | 582 W/m² | - |
| 1778007290 | 26.67° C | 41% | 1005.4 hPa | 0 mm | 0.89 m/s, 112° | 570 W/m² | - |
| 1778006986 | 26.67° C | 41% | 1005.5 hPa | 0 mm | 0.45 m/s, 20° | 576 W/m² | - |
| 1778006683 | 26.67° C | 42% | 1005.5 hPa | 0 mm | 1.79 m/s, 338° | 594 W/m² | - |
| 1778006379 | 26.67° C | 42% | 1005.8 hPa | 0 mm | 0 m/s | 607 W/m² | - |
| 1778006076 | 26.67° C | 44% | 1005.6 hPa | 0 mm | 1.34 m/s, 111° | 628 W/m² | - |
| 1778005773 | 27.22° C | 42% | 1005.6 hPa | 0 mm | 0.89 m/s, 115° | 644 W/m² | - |
| 1778005470 | 26.67° C | 43% | 1005.9 hPa | 0 mm | 0.89 m/s, 56° | 647 W/m² | - |
| 1778005166 | 26.67° C | 43% | 1005.9 hPa | 0 mm | 0.89 m/s, 132° | 655 W/m² | - |
| 1778004864 | 27.22° C | 41% | 1005.9 hPa | 0 mm | 1.34 m/s, 176° | 653 W/m² | - |
| 1778004560 | 27.22° C | 41% | 1005.8 hPa | 0 mm | 0.89 m/s, 41° | 695 W/m² | - |
| 1778004257 | 27.22° C | 41% | 1005.9 hPa | 0 mm | 0.45 m/s, 129° | 694 W/m² | - |
| 1778003953 | 27.22° C | 42% | 1005.7 hPa | 0 mm | 1.34 m/s, 133° | 717 W/m² | - |
| 1778003650 | 26.67° C | 42% | 1005.7 hPa | 0 mm | 1.34 m/s, 325° | 707 W/m² | - |
| 1778003346 | 26.67° C | 43% | 1005.8 hPa | 0 mm | 0.89 m/s, 183° | 721 W/m² | - |
| 1778003044 | 26.67° C | 42% | 1005.9 hPa | 0 mm | 0.89 m/s, 49° | 724 W/m² | - |
| 1778002740 | 26.67° C | 42% | 1006 hPa | 0 mm | 1.34 m/s, 6° | 738 W/m² | - |
| 1778002436 | 26.67° C | 42% | 1005.8 hPa | 0 mm | 1.79 m/s, 160° | 741 W/m² | - |
| 1778002133 | 27.22° C | 41% | 1005.9 hPa | 0 mm | 0.89 m/s, 122° | 750 W/m² | - |
| 1778001831 | 26.67° C | 41% | 1006.1 hPa | 0 mm | 1.34 m/s, 60° | 751 W/m² | - |
| 1778001530 | 26.67° C | 41% | 1006.2 hPa | 0 mm | 0.45 m/s, 336° | 757 W/m² | - |
| 1778001228 | 26.67° C | 41% | 1006.3 hPa | 0 mm | 1.34 m/s, 5° | 756 W/m² | - |
* Rain latest hour (hover to see other rain measurements)
** Current wind speed in m/s (hover to see current wind gust speed)